Regional Weather Roundup
Issued by NWS

Home | Current Version | Previous Version | Graphics & Text | Print | Product List | Glossary On
Versions: 1 2 3 4 5 6 7 8 9 10 11 12 13 14 15 16 17 18 19 20 21 22 23 24 25 26 27 28 29 30 31 32 33 34 35 36 37 38 39 40 41 42 43 44 45 46 47 48 49 50
000
ASUS43 KMPX 190001
RWRMN
WEATHER ROUNDUP FOR MINNESOTA
NATIONAL WEATHER SERVICE TWIN CITIES/CHANHASSEN MN
600 PM CST THU JAN 18 2018


NOTE: "FAIR" INDICATES FEW OR NO CLOUDS BELOW 12,000 FEET WITH NO
SIGNIFICANT WEATHER AND/OR OBSTRUCTIONS TO VISIBILITY. N/A MEANS
CURRENT SKY AND/OR WEATHER CONDITIONS ARE NOT AVAILABLE.

MNZ060>063-068>070-190100-
   Twin Cities Metro

CITY           SKY/WX    TMP DP  RH WIND       PRES   REMARKS
TWIN CITIES    CLOUDY    38  28  67 S5        29.78F
6HR MIN TEMP:  35; 6HR MAX TEMP:  41;

ST PAUL        FAIR      32  25  75 SE5       29.80F WCI  27
CRYSTAL        FAIR      35  24  64 S3        29.77F
BLAINE         MOCLDY    36  27  69 S6        29.77F
LAKEVILLE      FAIR      30  27  86 S3        29.78F
EDEN PRAIRIE   FAIR      35  27  72 SW3       29.77F
6HR MIN TEMP:  35; 6HR MAX TEMP:  41;

SOUTH ST PAUL  FAIR      33  25  73 CALM      29.78F
LAKE ELMO      FAIR      32  27  80 S6        29.79F WCI  26
$$
MNZ001>005-007-008-013>017-022>024-027-028-190100-
   Northwest Minnesota

CITY           SKY/WX    TMP DP  RH WIND       PRES   REMARKS
BEMIDJI        FAIR      23  22  93 S5        29.68F WCI  17
HALLOCK        FAIR      23  19  86 S14       29.63F WCI  11
ROSEAU         FAIR      25  19  80 S5        29.66R WCI  19
WARROAD        CLOUDY    25  21  86 CALM      29.66S
CROOKSTON      FAIR      23  19  86 S9        29.69F WCI  13
FOSSTON        FAIR      19  16  86 S9        29.70F WCI   9
DETROIT LAKES  FAIR      27  21  80 S3        29.71F
MOORHEAD       FAIR      27  21  80 S8        29.72F WCI  18
PARK RAPIDS    FAIR      23  18  81 S5        29.69F WCI  17
MAHNOMEN       FAIR      23  19  84 S7        29.70F WCI  15
$$
MNZ006-009>011-018-025>026-190100-
   North Central Minnesota

CITY           SKY/WX    TMP DP  RH WIND       PRES   REMARKS
BAUDETTE       CLOUDY    27  23  85 S3        29.65F
FLAG ISLAND    CLOUDY    25  21  86 SW8       29.65S WCI  16
INTL FALLS     CLOUDY    27  21  78 SW5       29.67F WCI  22
6HR MIN TEMP:  27; 6HR MAX TEMP:  29;

WASKISH        CLOUDY    30  27  86 SW3       29.68F
BIG FORK       CLOUDY    30  25  80 CALM      29.70S
LONGVILLE      FAIR      25  21  86 CALM      29.71F
GRAND RAPIDS   FAIR      24  22  91 S3        29.72F
CRANE LAKE     CLOUDY    27  23  86 S3        29.71F
ORR            CLOUDY    27  21  80 CALM      29.67F
COOK           CLOUDY    28  23  80 CALM      29.69F
WALKER         FAIR      29  23  78 S3        29.69F
$$
MNZ012-019>021-037-190100-
   Northeast Minnesota

CITY           SKY/WX    TMP DP  RH WIND       PRES   REMARKS
DULUTH         FAIR      26  23  88 NW3       29.71R
6HR MIN TEMP:  26; 6HR MAX TEMP:  35;

ELY            CLOUDY    28  23  80 W6        29.69R WCI  22
HIBBING        CLOUDY    26  24  92 CALM      29.70F
EVELETH        CLOUDY    30  23  74 W3        29.71F
DULUTH HARBOR  FAIR      32  27  80 SW3       29.75R
TWO HARBORS    FAIR      30  25  80 W3        29.70R
GRAND MARAIS     N/A     34  28  79 W3        29.71R
G MARAIS ARPRT CLOUDY    28  23  80 W5        29.66R WCI  23
$$
MNZ029>031-032-039>041-046>048-054>057-064-190100-
   West Central Minnesota

CITY           SKY/WX    TMP DP  RH WIND       PRES   REMARKS
FERGUS FALLS   FAIR      28  25  86 S3        29.73F
MORRIS         CLOUDY    36  27  69 SE3       29.74S
ALEXANDRIA     FAIR      29  23  78 SW3       29.74F
ELBOW LAKE     FAIR      28  24  88 CALM      29.74F
WADENA         FAIR      25  19  80 CALM      29.72F
GLENWOOD       FAIR      30  27  86 S3        29.75F
APPLETON       CLOUDY    34  28  80 CALM      29.75F
BENSON         CLOUDY    34  28  80 CALM      29.77F
ORTONVILLE     CLOUDY    37  27  65 CALM      29.75S
MADISON        CLOUDY    39  30  70 SW6       29.76S
WILLMAR        FAIR      34  28  80 CALM      29.78S
$$
MNZ033>034-036-042>043-049>051-058-059-190100-
   Central Minnesota

CITY           SKY/WX    TMP DP  RH WIND       PRES   REMARKS
ST CLOUD       FAIR      30  23  75 SW3       29.76S
6HR MIN TEMP:  29; 6HR MAX TEMP:  39;

SAUK CENTRE      N/A     30  26  85 CALM      29.75F
PAYNESVILLE    FAIR      32  28  86 CALM      29.76F
AITKIN         FAIR      21  19  93 CALM      29.72S
PINE RIVER     FAIR      25  19  80 CALM      29.75F
BRAINERD       FAIR      26  21  81 CALM      29.73F
STAPLES        FAIR      25  19  80 CALM      29.72F
LONG PRAIRIE   FAIR      27  23  86 CALM      29.74F
LITTLE FALLS   FAIR      28  19  69 CALM      29.75F
LITCHFIELD     FAIR      34  28  80 CALM      29.77R
BUFFALO        FAIR      32  26  80 CALM      29.78F
MAPLE LAKE     FAIR      34  29  80 MISG      29.77F
HUTCHINSON     FAIR      36  32  84 S3        29.78F
$$
MNZ037-044-045-052-053-190100-
   East Central Minnesota

CITY           SKY/WX    TMP DP  RH WIND       PRES   REMARKS
PRINCETON      FAIR      34  27  75 S3        29.77S
MORA           FAIR      27  21  80 CALM      29.77S
CAMBRIDGE      FAIR      34  23  64 CALM      29.77S
RUSH CITY      FAIR      26  21  80 CALM      29.76S
MOOSE LAKE     FAIR      32  27  80 CALM      29.72S
HINCKLEY       FAIR      30  23  74 SW3       29.75S
CLOQUET        FAIR      30  25  80 CALM      29.72S
MCGREGOR       FAIR      32  27  80 CALM      29.73F
$$
MNZ071>073-080-081-089-090-097-098-190100-
   Southwest Minnesota

CITY           SKY/WX    TMP DP  RH WIND       PRES   REMARKS
MONTEVIDEO     CLOUDY    37  28  70 W5        29.76S
GRANITE FALLS  CLOUDY    36  31  83 S10       29.78S
CANBY          CLOUDY    40  28  61 W7        29.77S
MARSHALL       CLOUDY    35  28  75 SW7       29.78F WCI  29
REDWOOD FALLS  CLOUDY    34  29  82 SW12      29.78S WCI  25
OLIVIA         CLOUDY    34  30  86 SW8       29.77R WCI  27
PIPESTONE      CLOUDY    30  27  86 SW7       29.79F WCI  23
WINDOM         CLOUDY    36  19  51 SW12      29.80F
WORTHINGTON    CLOUDY    34  28  79 SW12      29.82S WCI  25
JACKSON        CLOUDY    34  28  80 SW12      29.83S WCI  25
SLAYTON        CLOUDY    32  28  85 SW8       29.81S WCI  25
$$
MNZ065>067-074>077-082>085-091>093-190100-
   South Central Minnesota

CITY           SKY/WX    TMP DP  RH WIND       PRES   REMARKS
MANKATO        FAIR      36  29  75 SW10      29.81F
NEW ULM        CLOUDY    36  28  75 SW9       29.79F
ST JAMES       CLOUDY    34  28  80 S5        29.82S WCI  30
FAIRMONT       CLOUDY    35  28  75 SW7       29.84S WCI  29
FARIBAULT      FAIR      34  28  80 S5        29.80F WCI  30
OWATONNA       FAIR      32  27  80 S9        29.81F WCI  24
WASECA         FAIR      32  28  86 S8        29.82S WCI  25
ALBERT LEA     FAIR      34  25  69 SW9       29.83F WCI  26
$$
MNZ078>079-086>088-094>096-190100-
   Southeast Minnesota

CITY           SKY/WX    TMP DP  RH WIND       PRES   REMARKS
ROCHESTER      FAIR      28  23  81 SW10      29.83R WCI  19
6HR MIN TEMP:  28; 6HR MAX TEMP:  34;

RED WING       FAIR      34  23  64 CALM      29.81F
STANTON        FAIR      33  27  80 S5        29.79F WCI  28
DODGE CENTER   FAIR      30  25  80 S10       29.82F WCI  21
WINONA         FAIR      32  25  74 W3        29.84R
AUSTIN         FAIR      30  23  74 SW8       29.84R WCI  23
PRESTON        FAIR      31  23  73 SW12      29.84R WCI  21
$$
ABBREVIATIONS USED IN REMARKS
   TC - TEMPERATURES IN CELSIUS
  WCI - WIND CHILL INDEX
   HX - HEAT INDEX
  VSB - VISIBILITY
$$




USA.gov is the U.S. government's official web portal to all federal, state and local government web resources and services.